Location: Anjeux
(47.8815°N, 6.2076°E)
Time: 18:29:00
(UTC+00:00)

Meteor 1-26 Rocket - Pass Details

Date: 05 March 2021
Orbit: 807 x 928 km, 81.3° (Epoch: 14 April)

Event Time Altitude Azimuth Distance (km) Brightness Sun altitude
Rises 05:12:41 0° 192° (SSW) 3,404 7.2 -10.1°
Reaches altitude 10° 05:15:03 10° 193° (SSW) 2,489 6.5 -9.7°
Maximum altitude 05:20:44 83° 282° (WNW) 894 4.3 -8.8°
Drops below altitude 10° 05:26:39 10° 10° (N) 2,589 6.9 -7.8°
Sets 05:29:10 0° 12° (NNE) 3,549 7.6 -7.3°
